Location: Unspecified
(64.9000°N, 0.0000°E)
Time: 19:43:25
(UTC+00:00)

A-11 Canister half - Pass Details

Date: 16 June 2019
Orbit: 1526 x 1683 km, 47.3° (Epoch: 21 August)

Event Time Altitude Azimuth Distance (km) Brightness Sun altitude
Rises 11:06:24 0° 263° (W) 4,681 11.5 47.5°
Reaches altitude 10° 11:10:24 10° 249° (WSW) 3,698 11.2 47.6°
Maximum altitude 11:16:37 20° 206° (SSW) 2,963 11.4 47.8°
Drops below altitude 10° 11:22:54 10° 163° (SSE) 3,730 12.0 48.0°
Sets 11:26:59 0° 148° (SSE) 4,733 12.2 48.1°
